Weather History for Vancouver, WA

Change the Weather History Date:

Friday, October 19, 2012

  Actual Average Record
Temperature  
Mean Temperature 55 °F 53 °F  
Max Temperature 58 °F 62 °F 79 °F (1940)
Min Temperature 51 °F 43 °F 29 °F (1949)
Degree Days  
Heating Degree Days 10    
Month to date heating degree days 158  
Since 1 July heating degree days 241  
Cooling Degree Days 0    
Month to date cooling degree days 0  
Year to date cooling degree days 398  
Growing Degree Days 4 (Base 50)    
Moisture  
Dew Point 51 °F    
Average Humidity 84    
Maximum Humidity 100    
Minimum Humidity 67    
Precipitation  
Precipitation 0.28 in 0.11 in 1.38 in (1979)
Month to date precipitation 1.73 1.73  
Year to date precipitation 28.46 25.12  
Snow  
Snow 0.00 in - - ()
Month to date snowfall 0.0  
Since 1 July snowfall 0.0  
Since 1 September snowfall 0.0  
Snow Depth 0.00 in    
Sea Level Pressure  
Sea Level Pressure 29.87 in    
Wind  
Wind Speed 4 mph (SSE)    
Max Wind Speed 13 mph    
Max Gust Speed 18 mph    
Visibility 9 miles    
Events Rain    
T = Trace of Precipitation, MM = Missing Value Source: NWS Daily Summary

Daily Weather History Graph

Daily Weather History Graph

Search for Another Location

Airport:

Trip Planner

Search our weather history database for the weather conditions in past years. The results will help you decide how hot, cold, wet, or windy it might be!

Date:

Astronomy

Oct. 19, 2012 Rise Set
Actual Time 7:33 AM PDT 6:16 PM PDT
Civil Twilight 7:03 AM PDT 6:47 PM PDT
Nautical Twilight 6:28 AM PDT 7:21 PM PDT
Astronomical Twilight 5:54 AM PDT 7:55 PM PDT
Moon 12:31 PM PDT (10/19) 9:51 PM PDT (10/19)
Length of Visible Light 11h 44m
Length of Day
10h 43m
Waxing Crescent, 24% of the Moon is Illuminated
Oct 19
Waxing Crescent
Oct 21
First Quarter
Oct 29
Full
Nov 6
Last Quarter
Nov 13
New

Hourly Weather History & Observations

Time (PDT) Temp. Dew Point Humidity Pressure Visibility Wind Dir Wind Speed Gust Speed Precip Events Conditions
12:53 AM 57.9 °F 51.1 °F 78% 29.92 in 10.0 mi SE 6.9 mph - N/A   Mostly Cloudy
1:53 AM 57.0 °F 52.0 °F 83% 29.91 in 10.0 mi ESE 6.9 mph - 0.00 in   Overcast
2:53 AM 57.0 °F 51.1 °F 81% 29.92 in 10.0 mi Calm Calm - 0.00 in   Overcast
3:53 AM 55.0 °F 51.1 °F 86% 29.91 in 10.0 mi Calm Calm - N/A   Mostly Cloudy
4:53 AM 55.9 °F 52.0 °F 87% 29.91 in 10.0 mi Variable 3.5 mph - 0.00 in Rain Light Rain
5:20 AM 57.2 °F 51.8 °F 82% 29.90 in 10.0 mi East 4.6 mph - 0.00 in   Overcast
5:37 AM 57.2 °F 51.8 °F 82% 29.91 in 10.0 mi SE 3.5 mph - 0.00 in   Overcast
5:53 AM 55.9 °F 50.0 °F 80% 29.91 in 10.0 mi ESE 6.9 mph - 0.00 in   Overcast
6:43 AM 57.2 °F 46.4 °F 67% 29.91 in 10.0 mi Variable 3.5 mph - N/A   Overcast
6:53 AM 57.0 °F 46.0 °F 67% 29.92 in 10.0 mi ESE 3.5 mph - N/A   Overcast
7:53 AM 55.9 °F 48.0 °F 75% 29.93 in 10.0 mi ESE 4.6 mph - N/A   Overcast
8:53 AM 55.0 °F 46.9 °F 74% 29.94 in 10.0 mi Variable 4.6 mph - N/A   Overcast
9:53 AM 54.0 °F 48.0 °F 80% 29.94 in 10.0 mi ESE 9.2 mph - N/A   Overcast
10:53 AM 55.9 °F 48.9 °F 77% 29.92 in 10.0 mi Calm Calm - N/A   Overcast
11:53 AM 57.9 °F 48.9 °F 72% 29.91 in 10.0 mi Variable 6.9 mph - N/A   Mostly Cloudy
12:53 PM 57.9 °F 50.0 °F 75% 29.90 in 10.0 mi SSW 8.1 mph - N/A   Overcast
1:34 PM 57.2 °F 51.8 °F 82% 29.88 in 10.0 mi South 8.1 mph - N/A   Overcast
1:53 PM 57.9 °F 52.0 °F 81% 29.87 in 10.0 mi SSW 9.2 mph - N/A   Overcast
2:27 PM 57.2 °F 51.8 °F 82% 29.86 in 10.0 mi SSW 8.1 mph 16.1 mph N/A   Overcast
2:34 PM 57.2 °F 51.8 °F 82% 29.86 in 10.0 mi SSW 10.4 mph - N/A   Overcast
2:53 PM 57.9 °F 52.0 °F 81% 29.85 in 10.0 mi Variable 5.8 mph - N/A   Overcast
3:53 PM 57.9 °F 52.0 °F 81% 29.83 in 10.0 mi Variable 5.8 mph - N/A   Overcast
4:53 PM 57.0 °F 53.1 °F 87% 29.83 in 5.0 mi Variable 4.6 mph - 0.00 in Rain Light Rain
5:09 PM 57.2 °F 53.6 °F 88% 29.82 in 2.5 mi Variable 4.6 mph - 0.04 in Rain Rain
5:26 PM 57.2 °F 53.6 °F 88% 29.81 in 4.0 mi WNW 4.6 mph - 0.07 in Rain Light Rain
5:53 PM 55.9 °F 54.0 °F 93% 29.81 in 8.0 mi WNW 3.5 mph - 0.10 in Rain Light Rain
6:26 PM 55.4 °F 53.6 °F 94% 29.80 in 10.0 mi NNW 5.8 mph - 0.01 in Rain Light Rain
6:51 PM 53.6 °F 51.8 °F 94% 29.81 in 7.0 mi NW 5.8 mph - 0.04 in Rain Rain
6:53 PM 54.0 °F 52.0 °F 93% 29.81 in 5.0 mi NNW 3.5 mph - 0.05 in Rain Rain
7:38 PM 53.6 °F 51.8 °F 94% 29.81 in 10.0 mi Calm Calm - 0.03 in Rain Light Rain
7:53 PM 53.1 °F 51.1 °F 93% 29.82 in 10.0 mi Calm Calm - 0.03 in   Overcast
8:53 PM 52.0 °F 51.1 °F 97% 29.83 in 10.0 mi Calm Calm - N/A   Mostly Cloudy
9:53 PM 53.1 °F 51.1 °F 93% 29.85 in 10.0 mi Calm Calm - N/A   Mostly Cloudy
10:38 PM 53.6 °F 51.8 °F 94% 29.85 in 4.0 mi North 8.1 mph - 0.04 in Rain Rain
10:53 PM 53.1 °F 51.1 °F 93% 29.86 in 4.0 mi NW 4.6 mph - 0.10 in Rain Light Rain
10:55 PM 53.6 °F 51.8 °F 94% 29.86 in 4.0 mi Calm Calm - 0.00 in Rain Light Rain
11:05 PM 53.6 °F 50.0 °F 88% 29.86 in 10.0 mi Calm Calm - 0.00 in Rain Light Rain
11:53 PM 53.1 °F 48.9 °F 86% 29.88 in 10.0 mi Calm Calm - 0.00 in   Overcast